| time (UTC) | temp F | wind direction | speed knots | gust knots | rain 1hr in | rain 24hr in | rain mn in | humidity % | barometer mb |
| 20260508101803 | 53 | 303 | 1.7 | 7.0 | 0.00 | 0.00 | 0.00 | 40 | 1024.6 |
| 20260508100903 | 53 | 330 | 1.7 | 5.2 | 0.00 | 0.00 | 0.00 | 38 | 1024.9 |
| 20260508100003 | 53 | 311 | 1.7 | 6.1 | 0.00 | 0.00 | 0.00 | 37 | 1024.9 |
| 20260508095403 | 52 | 317 | 1.7 | 6.1 | 0.00 | 0.00 | 0.00 | 38 | 1024.7 |
| 20260508094503 | 51 | 307 | 2.6 | 6.1 | 0.00 | 0.00 | 0.00 | 38 | 1024.8 |
| 20260508093603 | 51 | 302 | 3.5 | 3.5 | 0.00 | 0.00 | 0.00 | 42 | 1024.5 |
| 20260508092915 | 51 | 311 | 2.6 | 5.2 | 0.00 | 0.00 | 0.00 | 41 | 1024.7 |
| 20260508091803 | 52 | 308 | 3.5 | 6.1 | 0.00 | 0.00 | 0.00 | 42 | 1024.7 |
| 20260508090903 | 50 | 312 | 3.5 | 6.1 | 0.00 | 0.00 | 0.00 | 49 | 1024.7 |
| 20260508090004 | 51 | 307 | 1.7 | 3.5 | 0.00 | 0.00 | 0.00 | 45 | 1024.7 |
| 20260508085403 | 50 | 301 | 1.7 | 5.2 | 0.00 | 0.00 | 0.00 | 43 | 1024.6 |
| 20260508084716 | 51 | 303 | 2.6 | 5.2 | 0.00 | 0.00 | 0.00 | 40 | 1024.6 |
| 20260508083603 | 50 | 322 | 1.7 | 7.0 | 0.00 | 0.00 | 0.00 | 44 | 1024.6 |
| 20260508082703 | 50 | 298 | 1.7 | 5.2 | 0.00 | 0.00 | 0.00 | 50 | 1024.6 |
| 20260508081803 | 49 | 290 | 1.7 | 3.5 | 0.00 | 0.00 | 0.00 | 50 | 1024.6 |
| 20260508081116 | 49 | 292 | 1.7 | 5.2 | 0.00 | 0.00 | 0.00 | 52 | 1024.5 |
| 20260508080004 | 48 | 296 | 2.6 | 3.5 | 0.00 | 0.00 | 0.00 | 58 | 1024.5 |
| 20260508075403 | 48 | 294 | 1.7 | 3.5 | 0.00 | 0.00 | 0.00 | 58 | 1024.4 |
| 20260508074504 | 47 | 300 | 2.6 | 3.5 | 0.00 | 0.00 | 0.00 | 61 | 1024.3 |
| 20260508073603 | 47 | 298 | 1.7 | 3.5 | 0.00 | 0.00 | 0.00 | 63 | 1024.3 |
| 20260508072703 | 46 | 294 | 2.6 | 3.5 | 0.00 | 0.00 | 0.00 | 63 | 1024.3 |
| 20260508071803 | 46 | 299 | 1.7 | 3.5 | 0.00 | 0.00 | 0.00 | 63 | 1024.2 |
| 20260508070903 | 46 | 296 | 1.7 | 3.5 | 0.00 | 0.00 | 0.00 | 63 | 1024.1 |
| 20260508070004 | 46 | 299 | 1.7 | 3.5 | 0.00 | 0.00 | 0.00 | 65 | 1024.1 |
| 20260508065403 | 45 | 297 | 1.7 | 3.5 | 0.00 | 0.00 | 0.00 | 67 | 1024.0 |
| 20260508064713 | 45 | 289 | 0.9 | 1.7 | 0.00 | 0.00 | 0.00 | 66 | 1023.8 |
| 20260508063603 | 44 | 296 | 1.7 | 3.5 | 0.00 | 0.00 | 0.00 | 70 | 1024.2 |
| 20260508062703 | 43 | 294 | 2.6 | 3.5 | 0.00 | 0.00 | 0.00 | 70 | 1023.8 |
| 20260508061803 | 43 | 303 | 1.7 | 3.5 | 0.00 | 0.00 | 0.00 | 72 | 1023.7 |
| 20260508060903 | 43 | 296 | 1.7 | 3.5 | 0.00 | 0.00 | 0.00 | 73 | 1023.8 |
| 20260508060004 | 42 | 294 | 2.6 | 3.5 | 0.00 | 0.00 | 0.00 | 73 | 1023.7 |
| 20260508055403 | 42 | 293 | 2.6 | 3.5 | 0.00 | 0.00 | 0.00 | 75 | 1023.7 |
| 20260508054503 | 41 | 294 | 1.7 | 3.5 | 0.00 | 0.00 | 0.00 | 76 | 1023.5 |
| 20260508053603 | 41 | 303 | 0.9 | 3.5 | 0.00 | 0.00 | 0.00 | 75 | 1023.4 |
| 20260508052703 | 40 | 306 | 1.7 | 3.5 | 0.00 | 0.00 | 0.00 | 76 | 1023.3 |
| 20260508052015 | 40 | 303 | 1.7 | 3.5 | 0.00 | 0.00 | 0.00 | 76 | 1023.3 |
| 20260508050903 | 40 | 298 | 0.9 | 3.5 | 0.00 | 0.00 | 0.00 | 78 | 1023.1 |
| 20260508050215 | 39 | 295 | 1.7 | 3.5 | 0.00 | 0.00 | 0.00 | 79 | 1023.0 |
| 20260508045403 | 39 | 293 | 1.7 | 3.5 | 0.00 | 0.00 | 0.00 | 79 | 1023.0 |
| 20260508044714 | 38 | 285 | 0.9 | 1.7 | 0.00 | 0.00 | 0.00 | 79 | 1022.7 |
| 20260508043603 | 38 | 310 | 0.9 | 1.7 | 0.00 | 0.00 | 0.00 | 81 | 1022.9 |
| 20260508042704 | 37 | 315 | 0.9 | 1.7 | 0.00 | 0.00 | 0.00 | 83 | 1022.7 |
| 20260508041804 | 37 | 297 | 0.9 | 1.7 | 0.00 | 0.00 | 0.00 | 83 | 1022.7 |
| 20260508040903 | 36 | 292 | 0.0 | 1.7 | 0.00 | 0.00 | 0.00 | 84 | 1022.6 |
| 20260508040003 | 36 | 292 | 0.0 | 1.7 | 0.00 | 0.00 | 0.00 | 85 | 1022.5 |
| 20260508035403 | 36 | 292 | 0.0 | 1.7 | 0.00 | 0.00 | 0.00 | 85 | 1022.5 |
| 20260508034503 | 35 | 308 | 0.0 | 1.7 | 0.00 | 0.00 | 0.00 | 85 | 1022.3 |
| 20260508033603 | 35 | 315 | 0.9 | 1.7 | 0.00 | 0.00 | 0.00 | 86 | 1022.2 |
| 20260508032703 | 35 | 315 | 0.0 | 1.7 | 0.00 | 0.00 | 0.00 | 86 | 1022.2 |
| 20260508031803 | 35 | 315 | 0.0 | 1.7 | 0.00 | 0.00 | 0.00 | 85 | 1022.0 |
| 20260508030903 | 34 | 315 | 0.0 | 1.7 | 0.00 | 0.00 | 0.00 | 85 | 1022.0 |
| 20260508030003 | 34 | 315 | 0.0 | 1.7 | 0.00 | 0.00 | 0.00 | 84 | 1022.0 |
| 20260508025403 | 34 | 315 | 0.9 | 1.7 | 0.00 | 0.00 | 0.00 | 84 | 1021.9 |
| 20260508024715 | 34 | 315 | 0.9 | 1.7 | 0.00 | 0.00 | 0.00 | 84 | 1021.8 |
| 20260508023603 | 34 | 315 | 0.9 | 1.7 | 0.00 | 0.00 | 0.00 | 84 | 1021.5 |
| 20260508022703 | 34 | 315 | 0.9 | 1.7 | 0.00 | 0.00 | 0.00 | 85 | 1021.6 |
| 20260508021803 | 34 | 334 | 0.9 | 1.7 | 0.00 | 0.00 | 0.00 | 85 | 1021.4 |
| 20260508021114 | 34 | 337 | 0.9 | 1.7 | 0.00 | 0.00 | 0.00 | 85 | 1021.4 |
| 20260508020004 | 35 | 337 | 0.9 | 1.7 | 0.00 | 0.00 | 0.00 | 85 | 1021.3 |
| 20260508015403 | 35 | 337 | 0.9 | 1.7 | 0.00 | 0.00 | 0.00 | 85 | 1021.1 |
| 20260508014503 | 35 | 337 | 0.9 | 1.7 | 0.00 | 0.00 | 0.00 | 85 | 1021.0 |
| 20260508013603 | 35 | 335 | 0.9 | 1.7 | 0.00 | 0.00 | 0.00 | 85 | 1021.0 |
| 20260508012916 | 35 | 337 | 0.9 | 1.7 | 0.00 | 0.00 | 0.00 | 85 | 1020.7 |
| 20260508011803 | 35 | 337 | 0.9 | 3.5 | 0.00 | 0.00 | 0.00 | 85 | 1020.7 |
| 20260508011115 | 35 | 336 | 0.9 | 3.5 | 0.00 | 0.00 | 0.00 | 84 | 1020.7 |
| 20260508010003 | 35 | 337 | 0.9 | 1.7 | 0.00 | 0.00 | 0.00 | 83 | 1020.6 |
| 20260508005403 | 35 | 339 | 0.9 | 1.7 | 0.00 | 0.00 | 0.00 | 81 | 1020.4 |
| 20260508004716 | 35 | 345 | 0.0 | 3.5 | 0.00 | 0.00 | 0.00 | 80 | 1020.4 |
| 20260508003604 | 36 | 346 | 1.7 | 3.5 | 0.00 | 0.00 | 0.00 | 79 | 1020.3 |
| 20260508002703 | 36 | 337 | 0.9 | 1.7 | 0.00 | 0.00 | 0.00 | 81 | 1020.2 |
| 20260508001804 | 36 | 337 | 0.0 | 1.7 | 0.00 | 0.00 | 0.00 | 80 | 1020.0 |
| 20260508000903 | 36 | 337 | 0.9 | 1.7 | 0.00 | 0.00 | 0.00 | 78 | 1020.1 |
| 20260508000219 | 36 | 340 | 0.9 | 1.7 | 0.00 | 0.00 | 0.00 | 79 | 1020.1 |
| 20260507235403 | 36 | 337 | 1.7 | 3.5 | 0.00 | 0.00 | 0.00 | 78 | 1019.8 |
| 20260507234503 | 37 | 341 | 1.7 | 3.5 | 0.00 | 0.00 | 0.00 | 78 | 1019.7 |
| 20260507233814 | 37 | 342 | 1.7 | 3.5 | 0.00 | 0.00 | 0.00 | 76 | 1019.8 |
| 20260507232703 | 37 | 318 | 0.9 | 1.7 | 0.00 | 0.00 | 0.00 | 78 | 1019.6 |
| 20260507231803 | 37 | 316 | 0.9 | 1.7 | 0.00 | 0.00 | 0.00 | 77 | 1019.5 |
| 20260507230903 | 37 | 349 | 0.9 | 3.5 | 0.00 | 0.00 | 0.00 | 74 | 1019.6 |
| 20260507230004 | 37 | 340 | 1.7 | 3.5 | 0.00 | 0.00 | 0.00 | 73 | 1019.3 |
| 20260507225403 | 37 | 342 | 1.7 | 3.5 | 0.00 | 0.00 | 0.00 | 73 | 1019.3 |
| 20260507224712 | 38 | 345 | 0.0 | 1.7 | 0.00 | 0.00 | 0.00 | 73 | 1019.0 |
| 20260507223603 | 38 | 359 | 0.9 | 3.5 | 0.00 | 0.00 | 0.00 | 70 | 1019.2 |
| 20260507222703 | 38 | 351 | 0.9 | 5.2 | 0.00 | 0.00 | 0.00 | 69 | 1019.0 |
| 20260507221803 | 38 | 358 | 1.7 | 5.2 | 0.00 | 0.00 | 0.00 | 69 | 1018.9 |
| 20260507220903 | 39 | 347 | 1.7 | 5.2 | 0.00 | 0.00 | 0.00 | 68 | 1019.0 |
| 20260507220003 | 39 | 355 | 1.7 | 3.5 | 0.00 | 0.00 | 0.00 | 67 | 1019.1 |
| 20260507215403 | 39 | 1 | 1.7 | 3.5 | 0.00 | 0.00 | 0.00 | 67 | 1018.9 |
| 20260507214503 | 39 | 19 | 0.9 | 5.2 | 0.00 | 0.00 | 0.00 | 66 | 1019.0 |
| 20260507213603 | 39 | 6 | 1.7 | 5.2 | 0.00 | 0.00 | 0.00 | 65 | 1018.5 |
| 20260507212703 | 39 | 12 | 0.9 | 5.2 | 0.00 | 0.00 | 0.00 | 64 | 1018.5 |
| 20260507211803 | 39 | 18 | 0.9 | 5.2 | 0.00 | 0.00 | 0.00 | 63 | 1018.4 |
| 20260507211113 | 39 | 16 | 0.9 | 3.5 | 0.00 | 0.00 | 0.00 | 63 | 1018.3 |
| 20260507210004 | 40 | 19 | 1.7 | 6.1 | 0.00 | 0.00 | 0.00 | 62 | 1018.4 |
| 20260507205403 | 40 | 17 | 0.0 | 6.1 | 0.00 | 0.00 | 0.00 | 61 | 1018.1 |
| 20260507204503 | 40 | 8 | 0.0 | 5.2 | 0.00 | 0.00 | 0.00 | 61 | 1017.9 |
| 20260507203603 | 41 | 346 | 1.7 | 5.2 | 0.00 | 0.00 | 0.00 | 60 | 1017.9 |
| 20260507202703 | 41 | 342 | 1.7 | 5.2 | 0.00 | 0.00 | 0.00 | 60 | 1017.9 |
| 20260507201803 | 42 | 349 | 1.7 | 9.6 | 0.00 | 0.00 | 0.00 | 58 | 1017.7 |
| 20260507200903 | 42 | 346 | 1.7 | 9.6 | 0.00 | 0.00 | 0.00 | 57 | 1017.7 |
| 20260507200003 | 42 | 345 | 1.7 | 6.1 | 0.00 | 0.00 | 0.00 | 56 | 1017.4 |
| 20260507195403 | 42 | 343 | 1.7 | 5.2 | 0.00 | 0.00 | 0.00 | 55 | 1017.4 |
| 20260507194503 | 43 | 350 | 1.7 | 6.1 | 0.00 | 0.00 | 0.00 | 54 | 1017.2 |
| 20260507193817 | 43 | 351 | 1.7 | 6.1 | 0.00 | 0.00 | 0.00 | 53 | 1017.2 |
| 20260507192703 | 43 | 5 | 0.9 | 3.5 | 0.00 | 0.00 | 0.00 | 52 | 1017.1 |
| 20260507191803 | 44 | 17 | 0.9 | 5.2 | 0.00 | 0.00 | 0.00 | 51 | 1016.7 |
| 20260507191114 | 44 | 12 | 0.0 | 6.1 | 0.00 | 0.00 | 0.00 | 51 | 1016.5 |
| 20260507190004 | 45 | 359 | 1.7 | 9.6 | 0.00 | 0.00 | 0.00 | 50 | 1016.8 |
| 20260507185403 | 45 | 40 | 1.7 | 7.0 | 0.00 | 0.00 | 0.00 | 50 | 1016.4 |
| 20260507184503 | 45 | 5 | 0.9 | 7.0 | 0.00 | 0.00 | 0.00 | 48 | 1016.4 |
| 20260507183603 | 46 | 349 | 1.7 | 9.6 | 0.00 | 0.00 | 0.00 | 48 | 1016.1 |
| 20260507182915 | 46 | 350 | 4.3 | 9.6 | 0.00 | 0.00 | 0.00 | 46 | 1016.3 |
| 20260507182017 | 47 | 1 | 3.5 | 12.2 | 0.00 | 0.00 | 0.00 | 46 | 1016.1 |
| 20260507180903 | 47 | 340 | 3.5 | 11.3 | 0.00 | 0.00 | 0.00 | 46 | 1016.0 |
| 20260507180003 | 48 | 328 | 3.5 | 7.0 | 0.00 | 0.00 | 0.00 | 50 | 1015.7 |
| 20260507175613 | 48 | 324 | 2.6 | 6.1 | 0.00 | 0.00 | 0.00 | 49 | 1015.8 |
| 20260507174716 | 48 | 319 | 2.6 | 6.1 | 0.00 | 0.00 | 0.00 | 47 | 1015.6 |
| 20260507173603 | 48 | 318 | 3.5 | 7.0 | 0.00 | 0.00 | 0.00 | 47 | 1015.6 |
| 20260507172703 | 49 | 315 | 2.6 | 9.6 | 0.00 | 0.00 | 0.00 | 45 | 1015.3 |
| 20260507171803 | 49 | 317 | 3.5 | 7.8 | 0.00 | 0.00 | 0.00 | 49 | 1015.5 |
| 20260507170903 | 50 | 315 | 2.6 | 6.1 | 0.00 | 0.00 | 0.00 | 44 | 1015.2 |
| 20260507170217 | 50 | 319 | 3.5 | 6.1 | 0.00 | 0.00 | 0.00 | 45 | 1014.9 |
| 20260507165614 | 50 | 313 | 2.6 | 7.8 | 0.00 | 0.00 | 0.00 | 49 | 1015.1 |
| 20260507164503 | 51 | 312 | 2.6 | 7.0 | 0.00 | 0.00 | 0.00 | 49 | 1014.8 |
| 20260507163603 | 50 | 305 | 4.3 | 7.0 | 0.00 | 0.00 | 0.00 | 46 | 1015.0 |
| 20260507162916 | 49 | 304 | 3.5 | 7.8 | 0.00 | 0.00 | 0.00 | 51 | 1014.9 |
| 20260507161803 | 49 | 312 | 3.5 | 5.2 | 0.00 | 0.00 | 0.00 | 47 | 1014.8 |
| 20260507160903 | 50 | 318 | 1.7 | 5.2 | 0.00 | 0.00 | 0.00 | 53 | 1014.7 |
| 20260507160004 | 50 | 317 | 1.7 | 5.2 | 0.00 | 0.00 | 0.00 | 46 | 1014.7 |
| 20260507155403 | 51 | 314 | 3.5 | 7.8 | 0.00 | 0.00 | 0.00 | 43 | 1014.5 |
| 20260507154717 | 51 | 313 | 2.6 | 7.8 | 0.00 | 0.00 | 0.00 | 44 | 1014.7 |
| 20260507153603 | 50 | 314 | 1.7 | 5.2 | 0.00 | 0.00 | 0.00 | 42 | 1014.6 |
| 20260507152703 | 52 | 308 | 2.6 | 7.0 | 0.00 | 0.00 | 0.00 | 40 | 1014.6 |
| 20260507151803 | 51 | 313 | 3.5 | 5.2 | 0.00 | 0.00 | 0.00 | 45 | 1014.3 |
| 20260507150903 | 51 | 309 | 2.6 | 9.6 | 0.00 | 0.00 | 0.00 | 42 | 1014.4 |
| 20260507150214 | 51 | 303 | 3.5 | 9.6 | 0.00 | 0.00 | 0.00 | 42 | 1014.4 |
| 20260507145403 | 50 | 307 | 3.5 | 7.8 | 0.00 | 0.00 | 0.00 | 42 | 1014.5 |
| 20260507144503 | 50 | 303 | 4.3 | 7.8 | 0.00 | 0.00 | 0.00 | 41 | 1014.5 |
| 20260507143603 | 50 | 313 | 6.1 | 9.6 | 0.00 | 0.00 | 0.00 | 42 | 1014.4 |
| 20260507142703 | 50 | 310 | 3.5 | 7.8 | 0.00 | 0.00 | 0.00 | 44 | 1014.4 |
| 20260507141803 | 50 | 313 | 2.6 | 7.8 | 0.00 | 0.00 | 0.00 | 47 | 1014.4 |
| 20260507140903 | 50 | 313 | 3.5 | 9.6 | 0.00 | 0.00 | 0.00 | 45 | 1014.4 |
| 20260507140003 | 50 | 310 | 3.5 | 3.5 | 0.00 | 0.00 | 0.00 | 49 | 1014.2 |
| 20260507135616 | 50 | 313 | 1.7 | 3.5 | 0.00 | 0.00 | 0.00 | 46 | 1014.4 |
| 20260507134503 | 50 | 313 | 1.7 | 5.2 | 0.00 | 0.00 | 0.00 | 44 | 1014.4 |
| 20260507133603 | 51 | 322 | 1.7 | 6.1 | 0.00 | 0.00 | 0.00 | 47 | 1014.5 |
| 20260507132703 | 51 | 322 | 3.5 | 7.8 | 0.00 | 0.00 | 0.00 | 47 | 1014.2 |
| 20260507131803 | 51 | 319 | 2.6 | 7.0 | 0.00 | 0.00 | 0.00 | 45 | 1014.1 |
| 20260507130903 | 50 | 321 | 3.5 | 7.0 | 0.00 | 0.00 | 0.00 | 46 | 1014.3 |
| 20260507130003 | 51 | 311 | 3.5 | 6.1 | 0.00 | 0.00 | 0.00 | 48 | 1014.1 |
| 20260507125403 | 51 | 314 | 2.6 | 6.1 | 0.00 | 0.00 | 0.00 | 43 | 1014.2 |
| 20260507124714 | 51 | 318 | 3.5 | 7.8 | 0.00 | 0.00 | 0.00 | 42 | 1014.2 |
| 20260507123603 | 51 | 311 | 2.6 | 6.1 | 0.00 | 0.00 | 0.00 | 37 | 1014.0 |
| 20260507122705 | 52 | 272 | 1.7 | 3.5 | 0.00 | 0.00 | 0.00 | 38 | 1014.0 |
| 20260507122016 | 51 | 287 | 1.7 | 3.5 | 0.00 | 0.00 | 0.00 | 33 | 1014.1 |
| 20260507121113 | 51 | 272 | 1.7 | 3.5 | 0.00 | 0.00 | 0.00 | 33 | 1014.2 |
| 20260507120004 | 53 | 289 | 0.9 | 3.5 | 0.00 | 0.00 | 0.00 | 32 | 1014.1 |
| 20260507115403 | 51 | 289 | 1.7 | 3.5 | 0.00 | 0.00 | 0.00 | 33 | 1014.1 |
| 20260507114503 | 51 | 310 | 1.7 | 3.5 | 0.00 | 0.00 | 0.00 | 33 | 1014.4 |
| 20260507113603 | 52 | 302 | 1.7 | 3.5 | 0.00 | 0.00 | 0.00 | 34 | 1014.3 |
| 20260507112914 | 52 | 321 | 1.7 | 3.5 | 0.00 | 0.00 | 0.00 | 31 | 1014.2 |
| 20260507112017 | 52 | 319 | 1.7 | 3.5 | 0.00 | 0.00 | 0.00 | 32 | 1014.2 |
| 20260507110903 | 52 | 317 | 1.7 | 3.5 | 0.00 | 0.00 | 0.00 | 30 | 1014.3 |
| 20260507110003 | 52 | 304 | 1.7 | 3.5 | 0.00 | 0.00 | 0.00 | 31 | 1014.4 |
| 20260507105403 | 52 | 320 | 1.7 | 3.5 | 0.00 | 0.00 | 0.00 | 33 | 1014.2 |
| 20260507104504 | 52 | 304 | 1.7 | 3.5 | 0.00 | 0.00 | 0.00 | 36 | 1014.0 |
| 20260507103603 | 51 | 288 | 1.7 | 3.5 | 0.00 | 0.00 | 0.00 | 31 | 1014.4 |
| 20260507102703 | 52 | 300 | 1.7 | 3.5 | 0.00 | 0.00 | 0.00 | 31 | 1014.1 |